Location: Harbor View
(36.2448°N, 86.5797°W)
Time: 08:58:52
(UTC+00:00)

NOSS 3-3 (A) - Pass Details

Date: 29 October 2020
Orbit: 819 x 1393 km, 63.4° (Epoch: 29 November)

Event Time Altitude Azimuth Distance (km) Brightness Sun altitude
Rises 23:21:51 0° 200° (SSW) 3,343 7.3 -6.5°
Reaches altitude 10° 23:24:14 10° 196° (SSW) 2,437 6.5 -7.0°
Maximum altitude 23:29:43 61° 117° (ESE) 991 3.9 -8.1°
Drops below altitude 10° 23:35:48 10° 38° (NE) 2,699 5.9 -9.3°
Enters shadow 23:38:31 - 36° (NE) 3,718 6.6 -9.8°
